Weather History for KABI - October, 2013

Change the Weather History Date:

Sunday, October 27, 2013

  Actual Average Record
Temperature  
Mean Temperature 64 °F 62 °F  
Max Temperature 72 °F 74 °F 90 °F (1988)
Min Temperature 56 °F 51 °F 28 °F (1997)
Degree Days  
Heating Degree Days 1 5  
Month to date heating degree days 76 71  
Since 1 July heating degree days 76 82  
Cooling Degree Days 0 2  
Month to date cooling degree days 117 109  
Year to date cooling degree days 2686 2380  
Growing Degree Days 14 (Base 50)    
Moisture  
Dew Point 51 °F    
Average Humidity 68    
Maximum Humidity 87    
Minimum Humidity 49    
Precipitation  
Precipitation 0.00 in 0.09 in 1.36 in (1991)
Month to date precipitation 1.40 2.66  
Year to date precipitation 20.91 21.86  
Sea Level Pressure  
Sea Level Pressure 30.07 in    
Wind  
Wind Speed 6 mph (NNW)    
Max Wind Speed 14 mph    
Max Gust Speed 17 mph    
Visibility 10 miles    
Events      
T = Trace of Precipitation, MM = Missing Value Source: NWS Daily Summary

Daily Weather History Graph

Daily Weather History Graph

Search for Another Location

Airport or City:

Trip Planner

Search our weather history database for the weather conditions in past years. The results will help you decide how hot, cold, wet, or windy it might be!

Date:

Astronomy

Oct. 27, 2013 Rise Set
Actual Time 7:52 AM CDT 6:52 PM CDT
Civil Twilight 7:26 AM CDT 7:17 PM CDT
Nautical Twilight 6:57 AM CDT 7:46 PM CDT
Astronomical Twilight 6:29 AM CDT 8:15 PM CDT
Moon 1:13 AM CDT (10/27) 2:42 PM CDT (10/27)
Length of Visible Light 11h 50m
Length of Day
11h 00m
Last Quarter, 43% of the Moon is Illuminated
Oct 27
Last Quarter
Nov 3
New
Nov 9
First Quarter
Nov 17
Full
Nov 25
Last Quarter

Hourly Weather History & Observations

Time (CDT) Temp. Dew Point Humidity Pressure Visibility Wind Dir Wind Speed Gust Speed Precip Events Conditions
12:09 AM 60.8 °F 48.2 °F 63% 30.16 in 10.0 mi NNW 9.2 mph - N/A   Mostly Cloudy
12:52 AM 61.0 °F 48.9 °F 64% 30.09 in 10.0 mi NNW 12.7 mph - N/A   Overcast
1:25 AM 60.8 °F 48.2 °F 63% 30.15 in 10.0 mi NNW 10.4 mph - N/A   Overcast
1:52 AM 57.9 °F 50.0 °F 75% 30.09 in 10.0 mi NNW 6.9 mph - N/A   Mostly Cloudy
2:52 AM 59.0 °F 53.1 °F 81% 30.09 in 10.0 mi North 4.6 mph - N/A   Overcast
3:05 AM 60.8 °F 53.6 °F 77% 30.14 in 10.0 mi North 5.8 mph - N/A   Overcast
3:52 AM 60.1 °F 55.9 °F 86% 30.07 in 10.0 mi North 6.9 mph - N/A   Overcast
4:52 AM 60.1 °F 55.9 °F 86% 30.07 in 10.0 mi North 10.4 mph - N/A   Overcast
5:52 AM 59.0 °F 55.0 °F 87% 30.08 in 9.0 mi North 10.4 mph - N/A   Overcast
6:35 AM 57.2 °F 53.6 °F 88% 30.14 in 10.0 mi North 9.2 mph - N/A   Overcast
6:52 AM 57.0 °F 52.0 °F 83% 30.09 in 10.0 mi NNW 9.2 mph - N/A   Overcast
7:18 AM 57.2 °F 51.8 °F 82% 30.14 in 10.0 mi North 8.1 mph - N/A   Overcast
7:52 AM 57.9 °F 51.1 °F 78% 30.10 in 10.0 mi North 6.9 mph - N/A   Overcast
8:52 AM 57.9 °F 51.1 °F 78% 30.12 in 10.0 mi North 3.5 mph - N/A   Overcast
9:52 AM 59.0 °F 50.0 °F 72% 30.13 in 10.0 mi North 6.9 mph - N/A   Overcast
10:52 AM 60.1 °F 48.9 °F 67% 30.14 in 10.0 mi NW 6.9 mph - N/A   Overcast
11:52 AM 62.1 °F 48.9 °F 62% 30.14 in 10.0 mi NNW 4.6 mph - N/A   Overcast
12:35 PM 64.4 °F 50.0 °F 59% 30.17 in 10.0 mi NW 4.6 mph - N/A   Overcast
12:52 PM 64.9 °F 50.0 °F 58% 30.11 in 10.0 mi West 3.5 mph - N/A   Overcast
1:52 PM 66.9 °F 50.0 °F 54% 30.07 in 10.0 mi West 4.6 mph - N/A   Partly Cloudy
2:52 PM 69.1 °F 50.0 °F 51% 30.02 in 10.0 mi Variable 4.6 mph - N/A   Clear
3:52 PM 70.0 °F 51.1 °F 51% 30.00 in 10.0 mi Variable 3.5 mph - N/A   Clear
4:52 PM 71.1 °F 51.1 °F 49% 29.98 in 10.0 mi Variable 3.5 mph - N/A   Clear
5:52 PM 70.0 °F 52.0 °F 53% 29.96 in 10.0 mi South 5.8 mph - N/A   Clear
6:52 PM 64.9 °F 51.1 °F 61% 29.98 in 10.0 mi South 6.9 mph - N/A   Clear
7:52 PM 61.0 °F 51.1 °F 70% 29.99 in 10.0 mi South 4.6 mph - N/A   Clear
8:52 PM 57.9 °F 51.1 °F 78% 29.99 in 10.0 mi SE 5.8 mph - N/A   Clear
9:52 PM 57.0 °F 52.0 °F 83% 29.99 in 10.0 mi SSE 6.9 mph - N/A   Clear
10:52 PM 57.9 °F 53.1 °F 84% 29.99 in 10.0 mi SE 8.1 mph - N/A   Clear
11:52 PM 57.9 °F 54.0 °F 87% 29.99 in 10.0 mi SSE 9.2 mph - N/A   Clear